Location: Ottawa
(45.4167°N, 75.7000°W)
Time: 19:08:05
(UTC-05:00)

Tiangong 2 - Pass Details

Date: 09 October 2017
Orbit: 386 x 390 km, 42.8° (Epoch: 09 December)

Event Time Altitude Azimuth Distance (km) Brightness Sun altitude
Exits shadow 06:29:52 - 232° (SW) 1,743 3.9 -8.1°
Reaches altitude 10° 06:30:43 10° 227° (SW) 1,421 3.5 -8.0°
Maximum altitude 06:33:36 31° 162° (SSE) 708 2.6 -7.5°
Drops below altitude 10° 06:36:31 10° 98° (E) 1,427 5.7 -6.9°
Sets 06:38:43 0° 88° (E) 2,286 7.6 -6.6°
